Ogallala, NE

10:34 PM MDT on August 31, 2016 (GMT -0600)
Searle

Weather History for KOGA - October, 2012

Change the Weather History Date:

Saturday, October 13, 2012

  Actual Average Record
Temperature  
Mean Temperature 54 °F -  
Max Temperature 74 °F 70 °F 86 °F (1958)
Min Temperature 34 °F 35 °F 20 °F (1986)
Degree Days  
Heating Degree Days 11    
Growing Degree Days 4 (Base 50)    
Moisture  
Dew Point 38 °F    
Average Humidity 55    
Maximum Humidity 95    
Minimum Humidity 24    
Precipitation  
Precipitation 0.00 in - - ()
Sea Level Pressure  
Sea Level Pressure 29.78 in    
Wind  
Wind Speed 9 mph (NW)    
Max Wind Speed 28 mph    
Max Gust Speed 33 mph    
Visibility 10 miles    
Events      
Averages and records for this station are not official NWS values.
T = Trace of Precipitation, MM = Missing Value Source: NWS Daily Summary

Daily Weather History Graph

Daily Weather History Graph

Search for Another Location

Airport or City:

Trip Planner

Search our weather history database for the weather conditions in past years. The results will help you decide how hot, cold, wet, or windy it might be!

Date:

Astronomy

Oct. 13, 2012 Rise Set
Actual Time 6:57 AM MDT 6:08 PM MDT
Civil Twilight 6:29 AM MDT 6:36 PM MDT
Nautical Twilight 5:57 AM MDT 7:08 PM MDT
Astronomical Twilight 5:25 AM MDT 7:40 PM MDT
Moon 4:48 AM MDT (10/13) 4:54 PM MDT (10/13)
Length of Visible Light 12h 06m
Length of Day
11h 11m
Waning Crescent, 4% of the Moon is Illuminated
Oct 13
Waning Crescent
Oct 15
New
Oct 21
First Quarter
Oct 29
Full
Nov 6
Last Quarter

Hourly Weather History & Observations

Time (MDT) Temp. Windchill Dew Point Humidity Pressure Visibility Wind Dir Wind Speed Gust Speed Precip Events Conditions
12:35 AM 45.5 °F - 39.2 °F 79% 29.80 in 10.0 mi Calm Calm - N/A   Scattered Clouds
12:55 AM 45.9 °F - 39.2 °F 78% 29.79 in 10.0 mi Calm Calm - N/A   Clear
1:15 AM 44.2 °F 41.8 °F 38.8 °F 81% 29.82 in 10.0 mi WNW 4.6 mph - N/A   Clear
1:35 AM 44.2 °F 41.8 °F 39.2 °F 82% 29.82 in 10.0 mi West 4.6 mph - N/A   Clear
1:55 AM 45.0 °F 43.5 °F 39.6 °F 81% 29.81 in 10.0 mi SW 3.5 mph - N/A   Clear
2:15 AM 42.4 °F - 37.9 °F 84% 29.80 in 10.0 mi Calm Calm - N/A   Clear
2:35 AM 41.9 °F - 38.1 °F 86% 29.79 in 10.0 mi Calm Calm - N/A   Clear
2:55 AM 40.1 °F 38.0 °F 36.7 °F 88% 29.78 in 10.0 mi West 3.5 mph - N/A   Clear
3:15 AM 40.3 °F - 37.0 °F 88% 29.76 in 10.0 mi Calm Calm - N/A   Clear
3:35 AM 40.1 °F 36.9 °F 36.7 °F 88% 29.76 in 7.0 mi South 4.6 mph - N/A   Clear
3:55 AM 40.5 °F 38.4 °F 37.6 °F 89% 29.74 in 10.0 mi SW 3.5 mph - N/A   Clear
4:15 AM 38.5 °F - 36.3 °F 92% 29.75 in 7.0 mi Calm Calm - N/A   Clear
4:35 AM 38.1 °F - 36.0 °F 92% 29.75 in 7.0 mi Calm Calm - N/A   Clear
4:55 AM 37.9 °F - 36.1 °F 93% 29.75 in 7.0 mi Calm Calm - N/A   Clear
5:15 AM 35.4 °F 30.5 °F 33.6 °F 93% 29.75 in 7.0 mi WSW 5.8 mph - N/A   Clear
5:35 AM 34.9 °F - 32.5 °F 91% 29.76 in 7.0 mi Calm Calm - N/A   Clear
5:55 AM 34.5 °F 27.3 °F 32.9 °F 94% 29.77 in 7.0 mi West 9.2 mph - N/A   Clear
6:15 AM 37.0 °F 32.4 °F 35.6 °F 95% 29.77 in 10.0 mi West 5.8 mph - N/A   Clear
6:35 AM 40.3 °F 36.3 °F 37.6 °F 90% 29.77 in 10.0 mi West 5.8 mph - N/A   Clear
6:55 AM 38.3 °F 35.9 °F 36.0 °F 91% 29.78 in 10.0 mi West 3.5 mph - N/A   Clear
7:15 AM 38.3 °F - 35.4 °F 89% 29.78 in 10.0 mi Calm Calm - N/A   Clear
7:55 AM 41.2 °F 38.2 °F 37.8 °F 88% 29.77 in 10.0 mi WSW 4.6 mph - N/A   Clear
8:35 AM 47.5 °F - 42.1 °F 82% 29.77 in 10.0 mi WSW 4.6 mph - N/A   Clear
8:55 AM 51.4 °F - 43.0 °F 73% 29.77 in 10.0 mi West 8.1 mph - N/A   Clear
9:15 AM 56.7 °F - 43.2 °F 61% 29.77 in 10.0 mi WNW 10.4 mph 18.4 mph N/A   Clear
9:35 AM 61.5 °F - 41.9 °F 49% 29.77 in 10.0 mi WNW 18.4 mph 27.6 mph N/A   Clear
9:55 AM 63.0 °F - 41.9 °F 46% 29.76 in 10.0 mi NW 21.9 mph 26.5 mph N/A   Clear
10:15 AM 64.4 °F - 42.1 °F 44% 29.76 in 10.0 mi NW 25.3 mph - N/A   Clear
10:35 AM 66.0 °F - 42.8 °F 43% 29.75 in 10.0 mi NW 18.4 mph 21.9 mph N/A   Clear
10:55 AM 67.6 °F - 42.8 °F 41% 29.75 in 10.0 mi NW 23.0 mph 27.6 mph N/A   Clear
11:35 AM 69.3 °F - 43.2 °F 39% 29.74 in 10.0 mi NNW 21.9 mph - N/A   Clear
11:55 AM 70.2 °F - 43.5 °F 38% 29.73 in 10.0 mi NNW 17.3 mph 26.5 mph N/A   Clear
12:15 PM 72.0 °F - 43.3 °F 36% 29.73 in 10.0 mi North 20.7 mph 29.9 mph N/A   Clear
12:35 PM 71.6 °F - 44.8 °F 38% 29.73 in 10.0 mi North 21.9 mph 29.9 mph N/A   Clear
12:55 PM 71.6 °F - 45.1 °F 39% 29.73 in 10.0 mi NNW 20.7 mph 31.1 mph N/A   Clear
1:15 PM 71.1 °F - 46.6 °F 42% 29.72 in 10.0 mi NNW 25.3 mph 31.1 mph N/A   Clear
1:35 PM 72.3 °F - 45.5 °F 38% 29.70 in 10.0 mi NNW 27.6 mph 32.2 mph N/A   Clear
1:55 PM 72.3 °F - 42.8 °F 35% 29.70 in 10.0 mi NNW 21.9 mph 31.1 mph N/A   Scattered Clouds
2:15 PM 72.9 °F - 43.0 °F 34% 29.70 in 10.0 mi NNW 24.2 mph 31.1 mph N/A   Clear
2:35 PM 73.6 °F - 41.2 °F 31% 29.69 in 10.0 mi NW 21.9 mph 32.2 mph N/A   Clear
2:55 PM 74.3 °F - 38.7 °F 28% 29.70 in 10.0 mi North 24.2 mph 33.4 mph N/A   Clear
3:15 PM 73.9 °F - 38.8 °F 28% 29.70 in 10.0 mi North 26.5 mph 33.4 mph N/A   Clear
3:35 PM 73.2 °F - 37.6 °F 27% 29.71 in 10.0 mi NNW 20.7 mph 33.4 mph N/A   Clear
3:55 PM 72.1 °F - 36.3 °F 27% 29.72 in 10.0 mi North 21.9 mph 31.1 mph N/A   Scattered Clouds
4:15 PM 72.3 °F - 34.2 °F 25% 29.72 in 10.0 mi North 26.5 mph 32.2 mph N/A   Scattered Clouds
4:35 PM 71.6 °F - 33.1 °F 24% 29.73 in 10.0 mi North 19.6 mph 27.6 mph N/A   Scattered Clouds
4:55 PM 71.4 °F - 32.4 °F 24% 29.74 in 10.0 mi North 20.7 mph 27.6 mph N/A   Mostly Cloudy
5:15 PM 69.8 °F - 32.4 °F 25% 29.76 in 10.0 mi North 23.0 mph 27.6 mph N/A   Mostly Cloudy
5:35 PM 68.7 °F - 31.8 °F 25% 29.77 in 10.0 mi North 18.4 mph 25.3 mph N/A   Mostly Cloudy
6:35 PM 66.6 °F - 31.6 °F 27% 29.81 in 10.0 mi North 15.0 mph 23.0 mph N/A   Overcast
6:55 PM 66.2 °F - 31.8 °F 28% 29.82 in 10.0 mi North 13.8 mph - N/A   Overcast
7:55 PM 63.3 °F - 33.8 °F 33% 29.84 in 10.0 mi NNW 10.4 mph - N/A   Mostly Cloudy
8:15 PM 63.1 °F - 33.3 °F 33% 29.86 in 10.0 mi NNW 9.2 mph - N/A   Mostly Cloudy
8:35 PM 63.7 °F - 32.9 °F 32% 29.87 in 10.0 mi NNW 11.5 mph - N/A   Scattered Clouds
8:55 PM 61.9 °F - 33.3 °F 34% 29.88 in 10.0 mi North 11.5 mph - N/A   Clear
9:15 PM 63.0 °F - 32.9 °F 32% 29.90 in 10.0 mi North 13.8 mph - N/A   Scattered Clouds
9:55 PM 60.6 °F - 34.7 °F 38% 29.93 in 10.0 mi NNW 9.2 mph - N/A   Overcast
10:35 PM 59.9 °F - 34.3 °F 38% 29.95 in 10.0 mi NW 13.8 mph - N/A   Overcast
11:15 PM 61.7 °F - 32.4 °F 33% 29.97 in 10.0 mi North 20.7 mph 26.5 mph N/A   Overcast
11:35 PM 61.9 °F - 32.5 °F 33% 29.97 in 10.0 mi North 20.7 mph 28.8 mph N/A   Overcast
11:55 PM 61.3 °F - 33.1 °F 35% 29.98 in 10.0 mi North 15.0 mph - N/A   Overcast